Location: Unspecified
(0.0000°N, 0.0000°E)
Time: 08:11:53
(UTC+00:00)

KITSAT 1 - Visible Passes

Search period start: 27 November 2022 00:00
Search period end: 07 December 2022 00:00
Orbit: 1307 x 1323 km, 66.1° (Epoch: 26 November)

Date Brightness Start Highest point End Pass type
(mag) Time Alt. Az. Time Alt. Az. Time Alt. Az.
27 Nov 12.7 01:47:33 10° SE 01:49:24 11° ESE 01:51:14 10° E visible
27 Nov 10.0 03:36:29 10° SSW 03:44:36 80° WNW 03:52:42 10° NNE visible
28 Nov 12.1 01:59:42 10° SSE 02:05:28 21° ESE 02:11:12 10° ENE visible
28 Nov 10.3 03:52:50 10° SW 04:00:32 48° WNW 04:08:16 10° N visible
29 Nov 11.6 02:14:12 10° S 02:29:10 - NE 02:19:01 30° SE visible
29 Nov 11.6 04:09:50 10° SW 04:21:27 16° NNW 04:23:15 10° NNW visible
30 Nov 12.0 02:29:28 10° S 02:47:49 - NNE 02:31:33 20° S visible
